This is the latest recevied weather packets stored in our database for station/object TONGUE. If no packets are shown the sender has not sent any weather packets the latest 10 day(s).
| Time | Temp. | Humidity | Pressure | Rain* | Wind** | Luminosity | Snow |
|---|---|---|---|---|---|---|---|
| 1777441803 | 5° C | 100% | 0 hPa | - | - | - | - |
| 1777441203 | 5° C | 100% | 0 hPa | - | - | - | - |
| 1777440603 | 5.56° C | 99% | 0 hPa | - | - | - | - |
| 1777440003 | 5.56° C | 99% | 0 hPa | - | - | - | - |
| 1777439403 | 5.56° C | 100% | 0 hPa | - | - | - | - |
| 1777438804 | 5.56° C | 100% | 0 hPa | - | - | - | - |
| 1777438203 | 6.11° C | 100% | 0 hPa | - | - | - | - |
| 1777437603 | 6.11° C | 100% | 0 hPa | - | - | - | - |
| 1777437004 | 6.67° C | 100% | 0 hPa | - | - | - | - |
| 1777436403 | 6.67° C | - | - | - | - | - | - |
| 1777435803 | 7.22° C | 98% | 0 hPa | - | - | - | - |
| 1777435203 | 7.22° C | 96% | 0 hPa | - | - | - | - |
| 1777434603 | 7.78° C | 94% | 0 hPa | - | - | - | - |
| 1777434003 | 7.78° C | 92% | 0 hPa | - | - | - | - |
| 1777433404 | 8.89° C | 90% | 0 hPa | - | - | - | - |
| 1777432803 | 9.44° C | 84% | 0 hPa | - | - | - | - |
| 1777432203 | 9.44° C | 79% | 0 hPa | - | - | - | - |
| 1777431603 | 10° C | 75% | 0 hPa | - | - | - | - |
| 1777431003 | 10° C | 74% | 0 hPa | - | - | - | - |
| 1777430403 | 10.56° C | 73% | 0 hPa | - | - | - | - |
| 1777429803 | 10.56° C | 72% | 0 hPa | - | - | - | - |
| 1777429202 | 10.56° C | 72% | 0 hPa | - | - | - | - |
| 1777428603 | 10.56° C | 70% | 0 hPa | - | - | - | - |
| 1777428003 | 11.11° C | 70% | 0 hPa | - | - | - | - |
| 1777427403 | 11.11° C | 69% | 0 hPa | - | - | - | - |
* Rain since midnight (hover to see other rain measurements)
** Current wind speed in m/s (hover to see current wind gust speed)